Time,TemperatureF,DewpointF,PressureIn,WindDirection,WindDirectionDegrees,WindSpeedMPH,WindSpeedGustMPH,Humidity,HourlyPrecipIn,Conditions,Clouds,dailyrainin,SoftwareType,DateUTC
2013-03-25 00:00:00,35.8,21.2,30.09,NNW,329,0.0,0.0,55,0.00,,SCT,0.00,VWS V14.01,2013-03-25 07:00:00,
2013-03-25 00:04:00,35.6,21.5,30.09,NNW,329,0.0,0.0,56,0.00,,SCT,0.00,VWS V14.01,2013-03-25 07:04:00,
2013-03-25 00:09:00,35.6,21.5,30.09,NNW,329,0.0,0.0,56,0.00,,SCT,0.00,VWS V14.01,2013-03-25 07:09:00,
2013-03-25 00:14:00,35.4,21.7,30.09,NNW,329,0.0,0.0,57,0.00,,SCT,0.00,VWS V14.01,2013-03-25 07:14:00,
2013-03-25 00:15:00,35.4,21.7,30.09,NNW,329,0.0,0.0,57,0.00,,SCT,0.00,VWS V14.01,2013-03-25 07:15:00,
2013-03-25 00:19:00,35.4,21.7,30.09,NNW,329,0.0,0.0,57,0.00,,SCT,0.00,VWS V14.01,2013-03-25 07:19:00,
2013-03-25 00:24:00,35.2,21.5,30.09,NNW,329,0.0,0.0,57,0.00,,SCT,0.00,VWS V14.01,2013-03-25 07:24:00,
2013-03-25 00:29:00,35.2,22.0,30.09,NNW,329,0.0,0.0,58,0.00,,SCT,0.00,VWS V14.01,2013-03-25 07:29:00,
2013-03-25 00:30:00,35.2,22.0,30.09,NNW,329,0.0,0.0,58,0.00,,SCT,0.00,VWS V14.01,2013-03-25 07:30:00,
2013-03-25 00:35:00,35.1,21.8,30.09,NNW,329,0.0,0.0,58,0.00,,SCT,0.00,VWS V14.01,2013-03-25 07:35:00,
2013-03-25 00:40:00,35.1,21.8,30.09,NNW,329,0.0,0.0,58,0.00,,SCT,0.00,VWS V14.01,2013-03-25 07:40:00,
2013-03-25 00:45:00,34.9,21.6,30.09,NNW,329,0.0,0.0,58,0.00,,SCT,0.00,VWS V14.01,2013-03-25 07:45:00,
2013-03-25 00:50:00,34.9,21.6,30.09,NNW,329,0.0,0.0,58,0.00,,SCT,0.00,VWS V14.01,2013-03-25 07:50:00,
2013-03-25 00:55:00,34.7,21.5,30.09,NNW,329,0.0,0.0,58,0.00,,SCT,0.00,VWS V14.01,2013-03-25 07:55:00,
2013-03-25 01:00:00,34.5,20.9,30.09,NNW,333,3.6,5.4,57,0.00,,SCT,0.00,VWS V14.01,2013-03-25 08:00:00,
2013-03-25 01:05:00,34.3,21.1,30.09,NNW,329,0.0,3.6,58,0.00,,SCT,0.00,VWS V14.01,2013-03-25 08:05:00,
2013-03-25 01:10:00,34.3,21.1,30.09,NNW,338,0.0,3.6,58,0.00,,SCT,0.00,VWS V14.01,2013-03-25 08:10:00,
2013-03-25 01:15:00,34.2,21.3,30.09,NNW,339,0.0,0.0,59,0.00,,SCT,0.00,VWS V14.01,2013-03-25 08:15:00,
2013-03-25 01:20:00,34.2,21.3,30.09,NW,326,0.0,0.0,59,0.00,,SCT,0.00,VWS V14.01,2013-03-25 08:20:00,
2013-03-25 01:25:00,34.0,21.6,30.09,NW,326,0.0,0.0,60,0.00,,SCT,0.00,VWS V14.01,2013-03-25 08:25:00,
2013-03-25 01:30:00,34.0,21.6,30.09,NW,320,0.0,3.1,60,0.00,,SCT,0.00,VWS V14.01,2013-03-25 08:30:00,
2013-03-25 01:35:00,34.0,21.2,30.09,NNW,337,4.0,5.8,59,0.00,,SCT,0.00,VWS V14.01,2013-03-25 08:35:00,
2013-03-25 01:40:00,33.8,21.0,30.09,NNW,330,0.0,5.8,59,0.00,,SCT,0.00,VWS V14.01,2013-03-25 08:40:00,
2013-03-25 01:45:00,33.8,21.0,30.09,NNW,332,0.0,0.0,59,0.00,,SCT,0.00,VWS V14.01,2013-03-25 08:45:00,
2013-03-25 01:51:00,33.6,21.2,30.09,NNW,332,0.0,0.0,60,0.00,,SCT,0.00,VWS V14.01,2013-03-25 08:51:00,
2013-03-25 01:56:00,33.6,21.2,30.09,NNW,333,0.0,0.0,60,0.00,,SCT,0.00,VWS V14.01,2013-03-25 08:56:00,
2013-03-25 02:00:00,33.6,21.2,30.09,NW,317,0.0,0.0,60,0.00,,SCT,0.00,VWS V14.01,2013-03-25 09:00:00,
2013-03-25 02:01:00,33.6,21.2,30.09,NW,317,0.0,0.0,60,0.00,,SCT,0.00,VWS V14.01,2013-03-25 09:01:00,
2013-03-25 02:06:00,33.6,21.6,30.09,NNW,330,0.0,0.0,61,0.00,,SCT,0.00,VWS V14.01,2013-03-25 09:06:00,
2013-03-25 02:11:00,33.4,21.5,30.09,NNW,329,0.0,0.0,61,0.00,,SCT,0.00,VWS V14.01,2013-03-25 09:11:00,
2013-03-25 02:15:00,33.4,21.5,30.09,NNW,338,0.0,0.0,61,0.00,,SCT,0.00,VWS V14.01,2013-03-25 09:15:00,
2013-03-25 02:16:00,33.4,21.5,30.09,NNW,332,0.0,0.0,61,0.00,,SCT,0.00,VWS V14.01,2013-03-25 09:16:00,
2013-03-25 02:21:00,33.4,21.5,30.09,NNW,334,0.0,0.0,61,0.00,,SCT,0.00,VWS V14.01,2013-03-25 09:21:00,
2013-03-25 02:26:00,33.3,21.3,30.09,NNW,334,0.0,0.0,61,0.00,,SCT,0.00,VWS V14.01,2013-03-25 09:26:00,
2013-03-25 02:30:00,33.4,21.8,30.09,NNW,334,0.0,0.0,62,0.00,,SCT,0.00,VWS V14.01,2013-03-25 09:30:00,
2013-03-25 02:31:00,33.4,21.8,30.09,NNW,334,0.0,0.0,62,0.00,,SCT,0.00,VWS V14.01,2013-03-25 09:31:00,
2013-03-25 02:37:00,33.4,21.5,30.09,NNW,334,0.0,0.0,61,0.00,,SCT,0.00,VWS V14.01,2013-03-25 09:37:00,
2013-03-25 02:42:00,33.6,21.6,30.09,NNW,334,0.0,0.0,61,0.00,,SCT,0.00,VWS V14.01,2013-03-25 09:42:00,
2013-03-25 02:45:00,33.6,21.6,30.09,NNW,334,0.0,0.0,61,0.00,,SCT,0.00,VWS V14.01,2013-03-25 09:45:00,
2013-03-25 02:47:00,33.6,21.6,30.09,NNW,334,0.0,0.0,61,0.00,,SCT,0.00,VWS V14.01,2013-03-25 09:47:00,
2013-03-25 02:52:00,33.6,21.6,30.09,NNW,334,0.0,0.0,61,0.00,,SCT,0.00,VWS V14.01,2013-03-25 09:52:00,
2013-03-25 02:57:00,33.4,21.1,30.09,NNW,334,0.0,0.0,60,0.00,,SCT,0.00,VWS V14.01,2013-03-25 09:57:00,
2013-03-25 03:00:00,33.3,20.9,30.09,NNW,334,0.0,0.0,60,0.00,,SCT,0.00,VWS V14.01,2013-03-25 10:00:00,
2013-03-25 03:02:00,33.3,20.9,30.09,NNW,334,0.0,0.0,60,0.00,,SCT,0.00,VWS V14.01,2013-03-25 10:02:00,
2013-03-25 03:07:00,33.3,21.3,30.09,NNW,334,0.0,0.0,61,0.00,,SCT,0.00,VWS V14.01,2013-03-25 10:07:00,
2013-03-25 03:12:00,33.3,20.9,30.06,NNW,334,0.0,0.0,60,0.00,,SCT,0.00,VWS V14.01,2013-03-25 10:12:00,
2013-03-25 03:15:00,33.3,20.9,30.06,NNW,334,0.0,0.0,60,0.00,,SCT,0.00,VWS V14.01,2013-03-25 10:15:00,
2013-03-25 03:17:00,33.3,20.9,30.06,NNW,334,0.0,0.0,60,0.00,,SCT,0.00,VWS V14.01,2013-03-25 10:17:00,
2013-03-25 03:22:00,33.3,21.3,30.06,NNW,334,0.0,0.0,61,0.00,,SCT,0.00,VWS V14.01,2013-03-25 10:22:00,
2013-03-25 03:28:00,33.3,20.9,30.06,NNW,334,0.0,0.0,60,0.00,,SCT,0.00,VWS V14.01,2013-03-25 10:28:00,
2013-03-25 03:30:00,33.1,20.7,30.06,NNW,334,0.0,0.0,60,0.00,,SCT,0.00,VWS V14.01,2013-03-25 10:30:00,
2013-03-25 03:33:00,33.1,20.7,30.06,NNW,334,0.0,0.0,60,0.00,,SCT,0.00,VWS V14.01,2013-03-25 10:33:00,
2013-03-25 03:38:00,32.9,20.5,30.06,NNW,334,0.0,0.0,60,0.00,,SCT,0.00,VWS V14.01,2013-03-25 10:38:00,
2013-03-25 03:43:00,32.7,20.8,30.06,NNW,334,0.0,0.0,61,0.00,,SCT,0.00,VWS V14.01,2013-03-25 10:43:00,
2013-03-25 03:45:00,32.7,20.8,30.06,NNW,334,0.0,0.0,61,0.00,,SCT,0.00,VWS V14.01,2013-03-25 10:45:00,
2013-03-25 03:48:00,32.7,20.8,30.06,NNW,334,0.0,0.0,61,0.00,,SCT,0.00,VWS V14.01,2013-03-25 10:48:00,
2013-03-25 03:53:00,32.7,20.8,30.06,NNW,334,0.0,0.0,61,0.00,,SCT,0.00,VWS V14.01,2013-03-25 10:53:00,
2013-03-25 03:58:00,32.7,20.8,30.06,NNW,334,0.0,0.0,61,0.00,,SCT,0.00,VWS V14.01,2013-03-25 10:58:00,
2013-03-25 04:00:00,32.7,20.8,30.06,NNW,334,0.0,0.0,61,0.00,,SCT,0.00,VWS V14.01,2013-03-25 11:00:00,
2013-03-25 04:03:00,32.5,21.0,30.06,NNW,334,0.0,0.0,62,0.00,,SCT,0.00,VWS V14.01,2013-03-25 11:03:00,
2013-03-25 04:08:00,32.5,21.0,30.06,NNW,334,0.0,0.0,62,0.00,,SCT,0.00,VWS V14.01,2013-03-25 11:08:00,
2013-03-25 04:13:00,32.5,21.0,30.06,NNW,334,0.0,0.0,62,0.00,,SCT,0.00,VWS V14.01,2013-03-25 11:13:00,
2013-03-25 04:15:00,32.4,20.8,30.06,NNW,334,0.0,0.0,62,0.00,,SCT,0.00,VWS V14.01,2013-03-25 11:15:00,
2013-03-25 04:18:00,32.4,20.8,30.06,NNW,334,0.0,0.0,62,0.00,,SCT,0.00,VWS V14.01,2013-03-25 11:18:00,
2013-03-25 04:24:00,32.2,21.0,30.06,NNW,334,0.0,0.0,63,0.00,,SCT,0.00,VWS V14.01,2013-03-25 11:24:00,
2013-03-25 04:29:00,32.2,21.0,30.06,NNW,334,0.0,0.0,63,0.00,,SCT,0.00,VWS V14.01,2013-03-25 11:29:00,
2013-03-25 04:30:00,32.2,21.0,30.06,NNW,334,0.0,0.0,63,0.00,,SCT,0.00,VWS V14.01,2013-03-25 11:30:00,
2013-03-25 04:34:00,32.2,21.0,30.06,NNW,334,0.0,0.0,63,0.00,,SCT,0.00,VWS V14.01,2013-03-25 11:34:00,
2013-03-25 04:39:00,32.2,21.0,30.06,NNW,334,0.0,0.0,63,0.00,,SCT,0.00,VWS V14.01,2013-03-25 11:39:00,
2013-03-25 04:44:00,32.0,21.2,30.06,NNW,334,0.0,0.0,64,0.00,,SCT,0.00,VWS V14.01,2013-03-25 11:44:00,
2013-03-25 04:45:00,32.0,21.2,30.06,NNW,334,0.0,0.0,64,0.00,,SCT,0.00,VWS V14.01,2013-03-25 11:45:00,
2013-03-25 04:49:00,31.8,21.0,30.06,NNW,334,0.0,0.0,64,0.00,,SCT,0.00,VWS V14.01,2013-03-25 11:49:00,
2013-03-25 04:54:00,31.8,21.0,30.06,NNW,334,0.0,0.0,64,0.00,,SCT,0.00,VWS V14.01,2013-03-25 11:54:00,
2013-03-25 04:59:00,31.8,21.0,30.06,NNW,334,0.0,0.0,64,0.00,,SCT,0.00,VWS V14.01,2013-03-25 11:59:00,
2013-03-25 05:00:00,31.8,21.0,30.06,NNW,334,0.0,0.0,64,0.00,,SCT,0.00,VWS V14.01,2013-03-25 12:00:00,
2013-03-25 05:04:00,32.0,21.2,30.06,NNW,334,0.0,0.0,64,0.00,,SCT,0.00,VWS V14.01,2013-03-25 12:04:00,
2013-03-25 05:09:00,32.0,21.2,30.06,NNW,334,0.0,0.0,64,0.00,,SCT,0.00,VWS V14.01,2013-03-25 12:09:00,
2013-03-25 05:14:00,32.2,21.4,30.06,NNW,334,0.0,0.0,64,0.00,,SCT,0.00,VWS V14.01,2013-03-25 12:14:00,
2013-03-25 05:15:00,32.2,21.4,30.06,NNW,334,0.0,0.0,64,0.00,,SCT,0.00,VWS V14.01,2013-03-25 12:15:00,
2013-03-25 05:19:00,32.2,21.4,30.06,NNW,334,0.0,0.0,64,0.00,,SCT,0.00,VWS V14.01,2013-03-25 12:19:00,
2013-03-25 05:24:00,32.0,21.2,30.06,NNW,334,0.0,0.0,64,0.00,,SCT,0.00,VWS V14.01,2013-03-25 12:24:00,
2013-03-25 05:29:00,32.0,21.2,30.06,NNW,334,0.0,0.0,64,0.00,,SCT,0.00,VWS V14.01,2013-03-25 12:29:00,
2013-03-25 05:30:00,32.0,21.2,30.06,NNW,334,0.0,0.0,64,0.00,,SCT,0.00,VWS V14.01,2013-03-25 12:30:00,
2013-03-25 05:34:00,32.2,21.8,30.06,NNW,334,0.0,0.0,65,0.00,,SCT,0.00,VWS V14.01,2013-03-25 12:34:00,
2013-03-25 05:39:00,32.2,21.4,30.06,NNW,334,0.0,0.0,64,0.00,,SCT,0.00,VWS V14.01,2013-03-25 12:39:00,
2013-03-25 05:45:00,32.2,21.8,30.06,NNW,334,0.0,0.0,65,0.00,,SCT,0.00,VWS V14.01,2013-03-25 12:45:00,
2013-03-25 05:50:00,32.2,21.4,30.06,NNW,334,0.0,0.0,64,0.00,,SCT,0.00,VWS V14.01,2013-03-25 12:50:00,
2013-03-25 05:55:00,32.4,21.9,30.06,NNW,334,0.0,0.0,65,0.00,,SCT,0.00,VWS V14.01,2013-03-25 12:55:00,
2013-03-25 06:00:00,32.4,21.6,30.06,NNW,334,0.0,0.0,64,0.00,,SCT,0.00,VWS V14.01,2013-03-25 13:00:00,
2013-03-25 06:05:00,32.4,21.6,30.06,NNW,334,0.0,0.0,64,0.00,,SCT,0.00,VWS V14.01,2013-03-25 13:05:00,
2013-03-25 06:10:00,32.2,21.0,30.06,NNW,334,0.0,0.0,63,0.00,,SCT,0.00,VWS V14.01,2013-03-25 13:10:00,
2013-03-25 06:15:00,31.8,21.0,30.06,NNW,334,0.0,0.0,64,0.00,,SCT,0.00,VWS V14.01,2013-03-25 13:15:00,
2013-03-25 06:20:00,31.6,20.9,30.06,NNW,334,0.0,0.0,64,0.00,,SCT,0.00,VWS V14.01,2013-03-25 13:20:00,
2013-03-25 06:25:00,31.5,20.7,30.06,NNW,334,0.0,0.0,64,0.00,,SCT,0.00,VWS V14.01,2013-03-25 13:25:00,
2013-03-25 06:30:00,31.3,20.5,30.06,NNW,334,0.0,0.0,64,0.00,,SCT,0.00,VWS V14.01,2013-03-25 13:30:00,
2013-03-25 06:35:00,31.1,20.7,30.06,NNW,334,0.0,0.0,65,0.00,,SCT,0.00,VWS V14.01,2013-03-25 13:35:00,
2013-03-25 06:40:00,30.9,20.5,30.06,NNW,334,0.0,0.0,65,0.00,,SCT,0.00,VWS V14.01,2013-03-25 13:40:00,
2013-03-25 06:45:00,30.9,20.9,30.06,NNW,334,0.0,0.0,66,0.00,,SCT,0.00,VWS V14.01,2013-03-25 13:45:00,
2013-03-25 06:50:00,30.7,20.7,30.06,NNW,334,0.0,0.0,66,0.00,,SCT,0.00,VWS V14.01,2013-03-25 13:50:00,
2013-03-25 06:55:00,30.7,20.7,30.06,NNW,334,0.0,0.0,66,0.00,,SCT,0.00,VWS V14.01,2013-03-25 13:55:00,
2013-03-25 07:00:00,30.6,20.6,30.06,NNW,334,0.0,0.0,66,0.00,,SCT,0.00,VWS V14.01,2013-03-25 14:00:00,
2013-03-25 07:05:00,30.6,20.9,30.06,NNW,334,0.0,0.0,67,0.00,,SCT,0.00,VWS V14.01,2013-03-25 14:05:00,
2013-03-25 07:10:00,30.6,20.9,30.06,NNW,334,0.0,0.0,67,0.00,,SCT,0.00,VWS V14.01,2013-03-25 14:10:00,
2013-03-25 07:15:00,30.7,21.1,30.06,NNW,334,0.0,0.0,67,0.00,,SCT,0.00,VWS V14.01,2013-03-25 14:15:00,
2013-03-25 07:16:00,30.7,21.1,30.06,NNW,334,0.0,0.0,67,0.00,,SCT,0.00,VWS V14.01,2013-03-25 14:16:00,
2013-03-25 07:21:00,30.7,21.1,30.06,NNW,334,0.0,0.0,67,0.00,,SCT,0.00,VWS V14.01,2013-03-25 14:21:00,
2013-03-25 07:26:00,30.9,21.3,30.06,NNW,334,0.0,0.0,67,0.00,,SCT,0.00,VWS V14.01,2013-03-25 14:26:00,
2013-03-25 07:30:00,31.1,21.8,30.06,NNW,334,0.0,0.0,68,0.00,,SCT,0.00,VWS V14.01,2013-03-25 14:30:00,
2013-03-25 07:31:00,31.3,22.0,30.06,NNW,334,0.0,0.0,68,0.00,,SCT,0.00,VWS V14.01,2013-03-25 14:31:00,
2013-03-25 07:36:00,31.3,21.6,30.06,NNW,334,0.0,0.0,67,0.00,,SCT,0.00,VWS V14.01,2013-03-25 14:36:00,
2013-03-25 07:41:00,31.5,22.1,30.06,NNW,334,0.0,0.0,68,0.00,,SCT,0.00,VWS V14.01,2013-03-25 14:41:00,
2013-03-25 07:45:00,31.6,22.0,30.06,NNW,334,0.0,0.0,67,0.00,,SCT,0.00,VWS V14.01,2013-03-25 14:45:00,
2013-03-25 07:46:00,31.6,22.0,30.06,NNW,334,0.0,0.0,67,0.00,,SCT,0.00,VWS V14.01,2013-03-25 14:46:00,
2013-03-25 07:51:00,31.6,22.0,30.06,NNW,334,0.0,0.0,67,0.00,,SCT,0.00,VWS V14.01,2013-03-25 14:51:00,
2013-03-25 07:56:00,31.6,22.0,30.03,NNW,334,0.0,0.0,67,0.00,,SCT,0.00,VWS V14.01,2013-03-25 14:56:00,
2013-03-25 08:00:00,31.8,22.1,30.03,NNW,334,0.0,0.0,67,0.00,,SCT,0.00,VWS V14.01,2013-03-25 15:00:00,
2013-03-25 08:01:00,31.8,22.1,30.03,NNW,334,0.0,0.0,67,0.00,,SCT,0.00,VWS V14.01,2013-03-25 15:01:00,
2013-03-25 08:07:00,32.0,22.3,30.03,NNW,334,0.0,0.0,67,0.00,,SCT,0.00,VWS V14.01,2013-03-25 15:07:00,
2013-03-25 08:12:00,32.2,22.5,30.06,NNW,334,0.0,0.0,67,0.00,,SCT,0.00,VWS V14.01,2013-03-25 15:12:00,
2013-03-25 08:15:00,32.4,22.6,30.06,NNW,334,0.0,0.0,67,0.00,,SCT,0.00,VWS V14.01,2013-03-25 15:15:00,
2013-03-25 08:17:00,32.4,22.6,30.06,NNW,334,0.0,0.0,67,0.00,,SCT,0.00,VWS V14.01,2013-03-25 15:17:00,
2013-03-25 08:22:00,32.5,22.5,30.06,NNW,334,0.0,0.0,66,0.00,,SCT,0.00,VWS V14.01,2013-03-25 15:22:00,
2013-03-25 08:27:00,32.5,22.1,30.06,NNW,334,0.0,0.0,65,0.00,,SCT,0.00,VWS V14.01,2013-03-25 15:27:00,
2013-03-25 08:30:00,32.5,22.1,30.06,NNW,334,0.0,0.0,65,0.00,,SCT,0.00,VWS V14.01,2013-03-25 15:30:00,
2013-03-25 08:32:00,32.5,21.7,30.06,NNW,334,0.0,0.0,64,0.00,,SCT,0.00,VWS V14.01,2013-03-25 15:32:00,
2013-03-25 08:37:00,32.5,21.7,30.06,NNW,334,0.0,0.0,64,0.00,,SCT,0.00,VWS V14.01,2013-03-25 15:37:00,
2013-03-25 08:42:00,32.7,21.9,30.06,NNW,334,0.0,0.0,64,0.00,,SCT,0.00,VWS V14.01,2013-03-25 15:42:00,
2013-03-25 08:45:00,32.7,21.9,30.06,NNW,334,0.0,0.0,64,0.00,,SCT,0.00,VWS V14.01,2013-03-25 15:45:00,
2013-03-25 08:47:00,32.9,22.1,30.06,NNW,334,0.0,0.0,64,0.00,,SCT,0.00,VWS V14.01,2013-03-25 15:47:00,
2013-03-25 08:52:00,33.1,21.5,30.06,NW,313,0.0,0.0,62,0.00,,SCT,0.00,VWS V14.01,2013-03-25 15:52:00,
2013-03-25 08:57:00,33.1,21.9,30.06,NW,313,0.0,0.0,63,0.00,,SCT,0.00,VWS V14.01,2013-03-25 15:57:00,
2013-03-25 09:00:00,33.3,22.0,30.06,NW,313,0.0,0.0,63,0.00,,SCT,0.00,VWS V14.01,2013-03-25 16:00:00,
2013-03-25 09:03:00,33.4,22.2,30.06,NW,313,0.0,0.0,63,0.00,,SCT,0.00,VWS V14.01,2013-03-25 16:03:00,
2013-03-25 09:08:00,33.8,22.2,30.06,NW,313,0.0,0.0,62,0.00,,SCT,0.00,VWS V14.01,2013-03-25 16:08:00,
2013-03-25 09:13:00,34.0,22.4,30.06,NW,313,0.0,0.0,62,0.00,,SCT,0.00,VWS V14.01,2013-03-25 16:13:00,
2013-03-25 09:15:00,34.3,22.7,30.06,NW,313,0.0,0.0,62,0.00,,SCT,0.00,VWS V14.01,2013-03-25 16:15:00,
2013-03-25 09:18:00,34.5,22.1,30.06,NW,313,0.0,0.0,60,0.00,,SCT,0.00,VWS V14.01,2013-03-25 16:18:00,
2013-03-25 09:23:00,34.7,21.9,30.06,NW,313,0.0,0.0,59,0.00,,SCT,0.00,VWS V14.01,2013-03-25 16:23:00,
2013-03-25 09:28:00,34.9,22.0,30.06,NW,313,0.0,0.0,59,0.00,,SCT,0.00,VWS V14.01,2013-03-25 16:28:00,
2013-03-25 09:30:00,34.9,22.0,30.06,NW,313,0.0,0.0,59,0.00,,SCT,0.00,VWS V14.01,2013-03-25 16:30:00,
2013-03-25 09:33:00,35.1,22.2,30.06,NW,313,0.0,0.0,59,0.00,,SCT,0.00,VWS V14.01,2013-03-25 16:33:00,
2013-03-25 09:38:00,35.2,22.0,30.06,NW,313,0.0,0.0,58,0.00,,SCT,0.00,VWS V14.01,2013-03-25 16:38:00,
2013-03-25 09:43:00,35.4,22.1,30.06,NW,313,0.0,0.0,58,0.00,,SCT,0.00,VWS V14.01,2013-03-25 16:43:00,
2013-03-25 09:45:00,35.6,21.9,30.06,NW,313,0.0,0.0,57,0.00,,SCT,0.00,VWS V14.01,2013-03-25 16:45:00,
2013-03-25 09:48:00,35.8,22.0,30.06,NW,313,0.0,0.0,57,0.00,,SCT,0.00,VWS V14.01,2013-03-25 16:48:00,
2013-03-25 09:53:00,36.3,22.1,30.06,NW,324,0.0,0.0,56,0.00,,SCT,0.00,VWS V14.01,2013-03-25 16:53:00,
2013-03-25 09:58:00,36.7,22.0,30.06,NNW,336,0.0,0.0,55,0.00,,SCT,0.00,VWS V14.01,2013-03-25 16:58:00,
2013-03-25 10:00:00,36.7,22.0,30.06,NNW,336,0.0,0.0,55,0.00,,SCT,0.00,VWS V14.01,2013-03-25 17:00:00,
2013-03-25 10:03:00,37.0,22.4,30.06,West,277,0.0,0.0,55,0.00,,SCT,0.00,VWS V14.01,2013-03-25 17:03:00,
2013-03-25 10:08:00,37.6,22.5,30.06,West,277,0.0,0.0,54,0.00,,SCT,0.00,VWS V14.01,2013-03-25 17:08:00,
2013-03-25 10:13:00,38.1,22.5,30.03,NNW,333,0.0,0.0,53,0.00,,SCT,0.00,VWS V14.01,2013-03-25 17:13:00,
2013-03-25 10:15:00,38.1,22.5,30.03,NNW,333,0.0,0.0,53,0.00,,SCT,0.00,VWS V14.01,2013-03-25 17:15:00,
2013-03-25 10:19:00,38.5,22.4,30.03,WNW,294,0.0,0.0,52,0.00,,SCT,0.00,VWS V14.01,2013-03-25 17:19:00,
2013-03-25 10:24:00,39.0,22.4,30.03,NNW,343,2.2,6.3,51,0.00,,SCT,0.00,VWS V14.01,2013-03-25 17:24:00,
2013-03-25 10:29:00,39.4,22.3,30.03,NNW,332,0.0,6.3,50,0.00,,SCT,0.00,VWS V14.01,2013-03-25 17:29:00,
2013-03-25 10:30:00,39.4,22.8,30.03,NNW,332,0.0,6.3,51,0.00,,SCT,0.00,VWS V14.01,2013-03-25 17:30:00,
2013-03-25 10:34:00,39.4,22.3,30.03,NNW,334,0.0,0.0,50,0.00,,SCT,0.00,VWS V14.01,2013-03-25 17:34:00,
2013-03-25 10:39:00,39.4,22.3,30.03,NNW,333,0.0,6.3,50,0.00,,SCT,0.00,VWS V14.01,2013-03-25 17:39:00,
2013-03-25 10:44:00,39.9,22.8,30.03,WNW,298,0.0,6.3,50,0.00,,SCT,0.00,VWS V14.01,2013-03-25 17:44:00,
2013-03-25 10:45:00,39.9,22.8,30.03,WNW,295,2.7,6.3,50,0.00,,SCT,0.00,VWS V14.01,2013-03-25 17:45:00,
2013-03-25 10:49:00,40.3,23.1,30.03,NW,308,0.0,3.1,50,0.00,,SCT,0.00,VWS V14.01,2013-03-25 17:49:00,
2013-03-25 10:54:00,41.2,23.5,30.03,NNW,329,7.6,7.6,49,0.00,,SCT,0.00,VWS V14.01,2013-03-25 17:54:00,
2013-03-25 10:59:00,41.9,24.1,30.03,East,92,0.0,8.3,49,0.00,,SCT,0.00,VWS V14.01,2013-03-25 17:59:00,
2013-03-25 11:00:00,42.1,24.3,30.03,East,96,0.0,8.3,49,0.00,,SCT,0.00,VWS V14.01,2013-03-25 18:00:00,
2013-03-25 11:04:00,42.8,23.5,30.03,SE,128,0.0,0.0,46,0.00,,SCT,0.00,VWS V14.01,2013-03-25 18:04:00,
2013-03-25 11:09:00,43.3,23.4,30.03,SE,132,0.0,0.0,45,0.00,,SCT,0.00,VWS V14.01,2013-03-25 18:09:00,
2013-03-25 11:14:00,43.7,23.2,30.03,SE,134,5.8,5.8,44,0.00,,SCT,0.00,VWS V14.01,2013-03-25 18:14:00,
2013-03-25 11:15:00,43.7,23.2,30.03,SE,146,5.8,5.8,44,0.00,,SCT,0.00,VWS V14.01,2013-03-25 18:15:00,
2013-03-25 11:19:00,43.2,22.2,30.03,SSE,165,0.0,5.8,43,0.00,,SCT,0.00,VWS V14.01,2013-03-25 18:19:00,
2013-03-25 11:24:00,43.3,22.9,30.03,East,95,0.0,5.8,44,0.00,,SCT,0.00,VWS V14.01,2013-03-25 18:24:00,
2013-03-25 11:29:00,44.1,23.6,30.03,ESE,108,0.0,5.8,44,0.00,,SCT,0.00,VWS V14.01,2013-03-25 18:29:00,
2013-03-25 11:30:00,44.2,23.7,30.03,ESE,108,0.0,5.8,44,0.00,,SCT,0.00,VWS V14.01,2013-03-25 18:30:00,
2013-03-25 11:35:00,44.6,22.9,30.03,SSE,149,4.9,6.3,42,0.00,,SCT,0.00,VWS V14.01,2013-03-25 18:35:00,
2013-03-25 11:40:00,45.1,23.4,30.03,East,91,0.0,6.3,42,0.00,,SCT,0.00,VWS V14.01,2013-03-25 18:40:00,
2013-03-25 11:45:00,45.1,22.9,30.03,South,169,0.0,6.3,41,0.00,,SCT,0.00,VWS V14.01,2013-03-25 18:45:00,
2013-03-25 11:50:00,45.1,22.9,30.03,South,170,0.0,0.0,41,0.00,,SCT,0.00,VWS V14.01,2013-03-25 18:50:00,
2013-03-25 11:55:00,45.7,23.4,30.03,South,170,0.0,0.0,41,0.00,,SCT,0.00,VWS V14.01,2013-03-25 18:55:00,
2013-03-25 12:00:00,46.0,23.7,30.03,NW,310,0.0,0.0,41,0.00,,SCT,0.00,VWS V14.01,2013-03-25 19:00:00,
2013-03-25 12:05:00,46.6,23.6,30.03,SSE,155,0.0,0.0,40,0.00,,SCT,0.00,VWS V14.01,2013-03-25 19:05:00,
2013-03-25 12:10:00,46.8,23.7,30.03,ESE,108,0.0,3.1,40,0.00,,SCT,0.00,VWS V14.01,2013-03-25 19:10:00,
2013-03-25 12:15:00,47.3,24.2,30.03,East,99,0.0,0.0,40,0.00,,SCT,0.00,VWS V14.01,2013-03-25 19:15:00,
2013-03-25 12:20:00,47.5,23.8,30.03,SE,128,0.0,0.0,39,0.00,,SCT,0.00,VWS V14.01,2013-03-25 19:20:00,
2013-03-25 12:25:00,47.8,24.1,30.03,WSW,240,0.0,0.0,39,0.00,,SCT,0.00,VWS V14.01,2013-03-25 19:25:00,
2013-03-25 12:30:00,48.2,24.4,30.03,NNW,348,0.0,0.0,39,0.00,,SCT,0.00,VWS V14.01,2013-03-25 19:30:00,
2013-03-25 12:35:00,48.4,24.6,30.03,NNW,343,0.0,0.0,39,0.00,,SCT,0.00,VWS V14.01,2013-03-25 19:35:00,
2013-03-25 12:40:00,48.6,24.7,30.00,NNW,343,0.0,0.0,39,0.00,,SCT,0.00,VWS V14.01,2013-03-25 19:40:00,
2013-03-25 12:45:00,48.6,24.7,30.00,NNW,345,3.6,5.8,39,0.00,,SCT,0.00,VWS V14.01,2013-03-25 19:45:00,
2013-03-25 12:50:00,48.6,24.7,30.00,NNW,330,3.1,5.8,39,0.00,,SCT,0.00,VWS V14.01,2013-03-25 19:50:00,
2013-03-25 12:55:00,48.4,24.6,30.00,NNW,340,2.7,5.8,39,0.00,,SCT,0.00,VWS V14.01,2013-03-25 19:55:00,
2013-03-25 13:00:00,48.0,24.3,30.00,NW,318,0.0,6.3,39,0.00,,SCT,0.00,VWS V14.01,2013-03-25 20:00:00,
2013-03-25 13:01:00,48.0,24.3,30.00,North,353,0.0,0.0,39,0.00,,SCT,0.00,VWS V14.01,2013-03-25 20:01:00,
2013-03-25 13:06:00,47.7,23.9,30.00,NNE,13,0.0,5.4,39,0.00,,SCT,0.00,VWS V14.01,2013-03-25 20:06:00,
2013-03-25 13:11:00,47.7,23.9,30.00,East,93,0.0,5.4,39,0.00,,SCT,0.00,VWS V14.01,2013-03-25 20:11:00,
2013-03-25 13:15:00,47.8,24.1,30.00,NNW,329,0.0,5.4,39,0.00,,SCT,0.00,VWS V14.01,2013-03-25 20:15:00,
2013-03-25 13:17:00,47.8,24.1,30.00,NNW,330,0.0,0.0,39,0.00,,SCT,0.00,VWS V14.01,2013-03-25 20:17:00,
2013-03-25 13:22:00,48.6,24.7,30.00,North,353,0.0,0.0,39,0.00,,SCT,0.00,VWS V14.01,2013-03-25 20:22:00,
2013-03-25 13:27:00,48.7,24.9,30.00,NNW,341,0.0,0.0,39,0.00,,SCT,0.00,VWS V14.01,2013-03-25 20:27:00,
2013-03-25 13:30:00,48.7,24.9,30.00,NE,56,0.0,0.0,39,0.00,,SCT,0.00,VWS V14.01,2013-03-25 20:30:00,
2013-03-25 13:32:00,48.9,25.1,30.00,WNW,283,0.0,0.0,39,0.00,,SCT,0.00,VWS V14.01,2013-03-25 20:32:00,
2013-03-25 13:37:00,49.3,25.4,30.00,East,90,0.0,4.0,39,0.00,,SCT,0.00,VWS V14.01,2013-03-25 20:37:00,
2013-03-25 13:42:00,48.9,24.5,30.00,NW,310,0.0,5.8,38,0.00,,SCT,0.00,VWS V14.01,2013-03-25 20:42:00,
2013-03-25 13:45:00,48.9,24.4,30.00,WNW,298,0.0,5.8,38,0.00,,SCT,0.00,VWS V14.01,2013-03-25 20:45:00,
2013-03-25 13:47:00,48.7,24.9,30.00,NW,315,0.0,5.8,39,0.00,,SCT,0.00,VWS V14.01,2013-03-25 20:47:00,
2013-03-25 13:52:00,48.7,24.9,30.00,WNW,297,3.6,5.8,39,0.00,,SCT,0.00,VWS V14.01,2013-03-25 20:52:00,
2013-03-25 13:58:00,48.6,24.7,30.00,NW,310,0.0,5.8,39,0.00,,SCT,0.00,VWS V14.01,2013-03-25 20:58:00,
2013-03-25 14:00:00,48.7,24.9,30.00,WNW,291,0.0,5.8,39,0.00,,SCT,0.00,VWS V14.01,2013-03-25 21:00:00,
2013-03-25 14:03:00,48.9,25.1,30.00,NNW,331,0.0,0.0,39,0.00,,SCT,0.00,VWS V14.01,2013-03-25 21:03:00,
2013-03-25 14:08:00,48.9,25.1,30.00,NW,312,0.0,4.9,39,0.00,,SCT,0.00,VWS V14.01,2013-03-25 21:08:00,
2013-03-25 14:13:00,49.3,25.4,30.00,NNW,346,0.0,4.9,39,0.00,,SCT,0.00,VWS V14.01,2013-03-25 21:13:00,
2013-03-25 14:15:00,49.5,24.9,30.00,NW,316,4.0,5.8,38,0.00,,SCT,0.00,VWS V14.01,2013-03-25 21:15:00,
2013-03-25 14:18:00,49.5,24.9,30.00,WNW,295,0.0,4.0,38,0.00,,SCT,0.00,VWS V14.01,2013-03-25 21:18:00,
2013-03-25 14:23:00,49.6,25.1,30.00,NNW,329,0.0,5.8,38,0.00,,SCT,0.00,VWS V14.01,2013-03-25 21:23:00,
2013-03-25 14:28:00,49.8,25.2,30.00,NW,325,0.0,7.6,38,0.00,,SCT,0.00,VWS V14.01,2013-03-25 21:28:00,
2013-03-25 14:30:00,50.0,25.4,30.00,NW,316,0.0,7.6,38,0.00,,SCT,0.00,VWS V14.01,2013-03-25 21:30:00,
2013-03-25 14:33:00,50.2,25.6,30.00,North,4,0.0,5.4,38,0.00,,SCT,0.00,VWS V14.01,2013-03-25 21:33:00,
2013-03-25 14:38:00,50.7,26.0,30.00,West,273,0.0,6.3,38,0.00,,SCT,0.00,VWS V14.01,2013-03-25 21:38:00,
2013-03-25 14:43:00,50.9,26.2,30.00,SSW,196,0.0,6.3,38,0.00,,SCT,0.00,VWS V14.01,2013-03-25 21:43:00,
2013-03-25 14:45:00,51.3,26.5,30.00,West,275,4.0,6.3,38,0.00,,SCT,0.00,VWS V14.01,2013-03-25 21:45:00,
2013-03-25 14:48:00,51.1,25.7,30.00,NW,321,7.2,7.2,37,0.00,,SCT,0.00,VWS V14.01,2013-03-25 21:48:00,
2013-03-25 14:53:00,51.1,26.4,30.00,NW,313,0.0,7.2,38,0.00,,SCT,0.00,VWS V14.01,2013-03-25 21:53:00,
2013-03-25 14:58:00,51.6,26.9,29.97,NE,35,0.0,7.2,38,0.00,,SCT,0.00,VWS V14.01,2013-03-25 21:58:00,
2013-03-25 15:00:00,51.6,26.9,29.97,East,84,0.0,7.2,38,0.00,,SCT,0.00,VWS V14.01,2013-03-25 22:00:00,
2013-03-25 15:03:00,52.2,26.7,29.97,NNW,344,0.0,0.0,37,0.00,,SCT,0.00,VWS V14.01,2013-03-25 22:03:00,
2013-03-25 15:08:00,52.2,26.7,29.97,NW,311,0.0,4.0,37,0.00,,SCT,0.00,VWS V14.01,2013-03-25 22:08:00,
2013-03-25 15:13:00,52.0,26.5,29.97,NW,326,0.0,4.0,37,0.00,,SCT,0.00,VWS V14.01,2013-03-25 22:13:00,
2013-03-25 15:15:00,51.6,26.2,29.97,NNW,343,0.0,4.0,37,0.00,,SCT,0.00,VWS V14.01,2013-03-25 22:15:00,
2013-03-25 15:18:00,51.4,26.0,29.97,NNW,327,0.0,4.0,37,0.00,,SCT,0.00,VWS V14.01,2013-03-25 22:18:00,
2013-03-25 15:23:00,51.3,25.9,29.97,NNW,340,0.0,7.6,37,0.00,,SCT,0.00,VWS V14.01,2013-03-25 22:23:00,
2013-03-25 15:30:00,50.0,25.4,100.00,NW,316,0.0,7.6,38,0.00,,SCT,0.00,VWS V14.01,2013-03-25 22:30:00,
2013-03-25 15:45:00,51.3,26.5,100.00,West,275,4.0,6.3,38,0.00,,SCT,0.00,VWS V14.01,2013-03-25 22:45:00,
2013-03-25 16:00:00,51.6,26.9,100.00,East,84,0.0,7.2,38,0.00,,SCT,0.00,VWS V14.01,2013-03-25 23:00:00,
2013-03-25 16:15:00,51.6,26.2,100.00,NNW,343,0.0,4.0,37,0.00,,SCT,0.00,VWS V14.01,2013-03-25 23:15:00,
2013-03-25 19:56:00,43.3,26.0,29.97,SSE,167,0.0,0.0,50,0.00,,SCT,0.00,VWS V14.01,2013-03-26 02:56:00,
2013-03-25 20:00:00,43.3,26.0,29.97,SSE,167,0.0,0.0,50,0.00,,SCT,0.00,VWS V14.01,2013-03-26 03:00:00,
2013-03-25 20:02:00,43.2,25.8,29.97,SSE,167,0.0,0.0,50,0.00,,SCT,0.00,VWS V14.01,2013-03-26 03:02:00,
2013-03-25 20:07:00,43.0,25.6,29.97,North,8,0.0,0.0,50,0.00,,SCT,0.00,VWS V14.01,2013-03-26 03:07:00,
2013-03-25 20:12:00,43.0,25.6,29.97,WSW,237,0.0,0.0,50,0.00,,SCT,0.00,VWS V14.01,2013-03-26 03:12:00,
2013-03-25 20:15:00,42.8,25.5,29.97,SW,236,0.0,0.0,50,0.00,,SCT,0.00,VWS V14.01,2013-03-26 03:15:00,
2013-03-25 20:17:00,42.8,25.5,29.97,SW,219,0.0,0.0,50,0.00,,SCT,0.00,VWS V14.01,2013-03-26 03:17:00,
2013-03-25 20:22:00,42.6,25.3,29.97,SSE,156,0.0,0.0,50,0.00,,SCT,0.00,VWS V14.01,2013-03-26 03:22:00,
2013-03-25 20:27:00,42.4,25.1,29.97,SSE,156,0.0,0.0,50,0.00,,SCT,0.00,VWS V14.01,2013-03-26 03:27:00,
2013-03-25 20:30:00,42.4,25.1,29.97,SSE,156,0.0,0.0,50,0.00,,SCT,0.00,VWS V14.01,2013-03-26 03:30:00,
2013-03-25 20:32:00,42.4,25.6,29.97,SSE,156,0.0,0.0,51,0.00,,SCT,0.00,VWS V14.01,2013-03-26 03:32:00,
2013-03-25 20:37:00,42.4,25.6,29.97,SSE,156,0.0,0.0,51,0.00,,SCT,0.00,VWS V14.01,2013-03-26 03:37:00,
2013-03-25 20:42:00,42.3,25.4,29.97,NNW,328,0.0,0.0,51,0.00,,SCT,0.00,VWS V14.01,2013-03-26 03:42:00,
2013-03-25 20:45:00,42.3,25.4,29.97,NW,320,0.0,0.0,51,0.00,,SCT,0.00,VWS V14.01,2013-03-26 03:45:00,
2013-03-25 20:47:00,42.1,25.7,29.97,NNW,330,0.0,0.0,52,0.00,,SCT,0.00,VWS V14.01,2013-03-26 03:47:00,
2013-03-25 20:52:00,42.1,25.7,29.97,NNW,345,0.0,3.6,52,0.00,,SCT,0.00,VWS V14.01,2013-03-26 03:52:00,
2013-03-25 20:57:00,41.9,25.6,29.97,West,276,0.0,7.2,52,0.00,,SCT,0.00,VWS V14.01,2013-03-26 03:57:00,
2013-03-25 21:00:00,41.9,25.6,29.97,NNW,328,2.7,2.7,52,0.00,,SCT,0.00,VWS V14.01,2013-03-26 04:00:00,
2013-03-25 21:05:00,41.7,25.4,29.97,ESE,108,0.0,3.6,52,0.00,,SCT,0.00,VWS V14.01,2013-03-26 04:05:00,
2013-03-25 21:10:00,41.5,25.2,29.97,ENE,76,0.0,3.6,52,0.00,,SCT,0.00,VWS V14.01,2013-03-26 04:10:00,
2013-03-25 21:15:00,41.5,25.2,29.97,ENE,78,0.0,0.0,52,0.00,,SCT,0.00,VWS V14.01,2013-03-26 04:15:00,
2013-03-25 21:20:00,41.5,25.2,29.97,North,0,0.0,5.4,52,0.00,,SCT,0.00,VWS V14.01,2013-03-26 04:20:00,
2013-03-25 21:25:00,41.4,25.5,30.00,NW,326,0.0,5.4,53,0.00,,SCT,0.00,VWS V14.01,2013-03-26 04:25:00,
2013-03-25 21:30:00,41.4,25.5,30.00,NW,319,0.0,5.4,53,0.00,,SCT,0.00,VWS V14.01,2013-03-26 04:30:00,
2013-03-25 21:31:00,41.4,25.5,30.00,NW,319,0.0,0.0,53,0.00,,SCT,0.00,VWS V14.01,2013-03-26 04:31:00,
2013-03-25 21:36:00,41.2,25.4,30.00,NNW,346,3.6,3.6,53,0.00,,SCT,0.00,VWS V14.01,2013-03-26 04:36:00,
2013-03-25 21:41:00,41.2,25.8,30.00,NNW,332,0.0,4.9,54,0.00,,SCT,0.00,VWS V14.01,2013-03-26 04:41:00,
2013-03-25 21:45:00,41.0,25.6,30.00,NE,50,0.0,4.9,54,0.00,,SCT,0.00,VWS V14.01,2013-03-26 04:45:00,
2013-03-25 21:46:00,41.0,25.6,30.00,NE,50,0.0,0.0,54,0.00,,SCT,0.00,VWS V14.01,2013-03-26 04:46:00,
2013-03-25 21:52:00,41.0,25.6,30.00,NE,50,0.0,0.0,54,0.00,,SCT,0.00,VWS V14.01,2013-03-26 04:52:00,
2013-03-25 21:57:00,40.8,25.5,30.00,NW,308,0.0,0.0,54,0.00,,SCT,0.00,VWS V14.01,2013-03-26 04:57:00,
2013-03-25 22:00:00,41.0,26.1,30.00,NW,324,0.0,0.0,55,0.00,,SCT,0.00,VWS V14.01,2013-03-26 05:00:00,
2013-03-25 22:02:00,41.5,25.7,30.00,NW,320,0.0,0.0,53,0.00,,SCT,0.00,VWS V14.01,2013-03-26 05:02:00,
2013-03-25 22:07:00,41.2,24.9,30.00,NNW,337,0.0,0.0,52,0.00,,SCT,0.00,VWS V14.01,2013-03-26 05:07:00,
2013-03-25 22:12:00,40.8,25.0,30.00,NNW,334,0.0,0.0,53,0.00,,SCT,0.00,VWS V14.01,2013-03-26 05:12:00,
2013-03-25 22:15:00,40.6,24.9,30.00,WNW,285,0.0,0.0,53,0.00,,SCT,0.00,VWS V14.01,2013-03-26 05:15:00,
2013-03-25 22:17:00,40.6,24.9,30.00,WNW,299,0.0,0.0,53,0.00,,SCT,0.00,VWS V14.01,2013-03-26 05:17:00,
2013-03-25 22:22:00,40.5,24.7,30.00,NW,317,0.0,0.0,53,0.00,,SCT,0.00,VWS V14.01,2013-03-26 05:22:00,
2013-03-25 22:27:00,40.5,24.7,30.00,NW,308,0.0,0.0,53,0.00,,SCT,0.00,VWS V14.01,2013-03-26 05:27:00,
2013-03-25 22:30:00,40.5,24.7,30.00,NW,308,0.0,0.0,53,0.00,,SCT,0.00,VWS V14.01,2013-03-26 05:30:00,
2013-03-25 22:32:00,40.5,24.7,30.00,WNW,302,0.0,3.1,53,0.00,,SCT,0.00,VWS V14.01,2013-03-26 05:32:00,
2013-03-25 22:38:00,40.3,25.0,30.00,WNW,295,0.0,3.1,54,0.00,,SCT,0.00,VWS V14.01,2013-03-26 05:38:00,
2013-03-25 22:43:00,40.3,25.0,30.00,WNW,294,0.0,3.1,54,0.00,,SCT,0.00,VWS V14.01,2013-03-26 05:43:00,
2013-03-25 22:45:00,40.1,24.8,30.00,WNW,302,0.0,4.9,54,0.00,,SCT,0.00,VWS V14.01,2013-03-26 05:45:00,
2013-03-25 22:48:00,40.1,24.8,30.00,WNW,302,0.0,0.0,54,0.00,,SCT,0.00,VWS V14.01,2013-03-26 05:48:00,
2013-03-25 22:53:00,40.1,24.8,30.00,WNW,297,0.0,0.0,54,0.00,,SCT,0.00,VWS V14.01,2013-03-26 05:53:00,
2013-03-25 22:58:00,40.1,24.8,30.00,North,0,0.0,5.4,54,0.00,,SCT,0.00,VWS V14.01,2013-03-26 05:58:00,
2013-03-25 23:00:00,40.1,24.8,30.00,WNW,294,0.0,5.4,54,0.00,,SCT,0.00,VWS V14.01,2013-03-26 06:00:00,
2013-03-25 23:03:00,39.9,24.6,30.00,West,274,0.0,0.0,54,0.00,,SCT,0.00,VWS V14.01,2013-03-26 06:03:00,
2013-03-25 23:08:00,39.9,24.6,30.00,North,353,0.0,6.3,54,0.00,,SCT,0.00,VWS V14.01,2013-03-26 06:08:00,
2013-03-25 23:13:00,39.7,24.5,30.00,NNW,327,0.0,6.3,54,0.00,,SCT,0.00,VWS V14.01,2013-03-26 06:13:00,
2013-03-25 23:15:00,39.7,24.5,30.00,WNW,285,0.0,6.3,54,0.00,,SCT,0.00,VWS V14.01,2013-03-26 06:15:00,
2013-03-25 23:18:00,39.7,24.5,30.00,NW,325,0.0,2.7,54,0.00,,SCT,0.00,VWS V14.01,2013-03-26 06:18:00,
2013-03-25 23:23:00,39.6,24.3,30.00,NNW,330,0.0,4.0,54,0.00,,SCT,0.00,VWS V14.01,2013-03-26 06:23:00,
2013-03-25 23:28:00,39.6,24.7,29.97,NNW,344,0.0,4.0,55,0.00,,SCT,0.00,VWS V14.01,2013-03-26 06:28:00,
2013-03-25 23:30:00,39.6,24.7,29.97,NW,317,0.0,4.0,55,0.00,,SCT,0.00,VWS V14.01,2013-03-26 06:30:00,
2013-03-25 23:33:00,39.4,25.0,29.97,North,353,0.0,6.3,56,0.00,,SCT,0.00,VWS V14.01,2013-03-26 06:33:00,
2013-03-25 23:38:00,39.2,25.3,29.97,NW,310,0.0,9.6,57,0.00,,SCT,0.00,VWS V14.01,2013-03-26 06:38:00,
2013-03-25 23:43:00,38.8,26.2,29.97,NNW,339,0.0,9.6,60,0.00,,SCT,0.00,VWS V14.01,2013-03-26 06:43:00,
2013-03-25 23:45:00,38.8,26.6,29.97,West,279,3.6,9.6,61,0.00,,SCT,0.00,VWS V14.01,2013-03-26 06:45:00,
2013-03-25 23:48:00,38.7,26.8,29.97,West,266,0.0,5.8,62,0.00,,SCT,0.00,VWS V14.01,2013-03-26 06:48:00,
2013-03-25 23:54:00,38.5,27.0,29.97,WNW,283,0.0,10.5,63,0.00,,SCT,0.00,VWS V14.01,2013-03-26 06:54:00,
2013-03-25 23:59:00,38.3,28.0,29.97,West,274,0.0,10.5,66,0.00,,SCT,0.00,VWS V14.01,2013-03-26 06:59:00,